• In Uzbekistan
  • List of Countries
  • For 7 days
  • Water Temperature
  • Satellite Maps
  • Weather Map
  • Weather Widgets
  • user-avatar
    Login

    Hourly Weather Candido Mota

    Today, 16 December, Saturday

    Time Temperature Precipitation Wind Pressure Humidity
    00:00 +25°C° 0.3 mm 2 mps 717 mmHg 78%
    01:00 +24°C° 0.2 mm 2 mps 717 mmHg 79%
    02:00 +24°C° 0.2 mm 2 mps 717 mmHg 81%
    03:00 +23°C° 0 mm 2 mps 717 mmHg 81%
    04:00 +23°C° 0 mm 2 mps 717 mmHg 83%
    05:00 +23°C° 0 mm 2 mps 717 mmHg 85%
    06:00 +23°C° 0 mm 2 mps 718 mmHg 87%
    07:00 +25°C° 0 mm 2 mps 718 mmHg 80%
    08:00 +27°C° 0 mm 2 mps 719 mmHg 73%
    09:00 +30°C° 0 mm 3 mps 719 mmHg 65%
    10:00 +31°C° 0.5 mm 3 mps 719 mmHg 60%
    11:00 +33°C° 0.5 mm 3 mps 719 mmHg 55%
    12:00 +34°C° 0.5 mm 3 mps 718 mmHg 50%
    13:00 +34°C° 0 mm 3 mps 718 mmHg 50%
    14:00 +35°C° 0 mm 2 mps 717 mmHg 49%
    15:00 +35°C° 0 mm 2 mps 717 mmHg 49%
    16:00 +34°C° 0 mm 2 mps 716 mmHg 52%
    17:00 +32°C° 0 mm 2 mps 716 mmHg 55%
    18:00 +32°C° 0 mm 1 mps 716 mmHg 58%
    19:00 +30°C° 0 mm 2 mps 716 mmHg 62%
    20:00 +29°C° 0 mm 2 mps 716 mmHg 66%
    21:00 +27°C° 0 mm 2 mps 716 mmHg 69%
    22:00 +27°C° 0 mm 2 mps 716 mmHg 72%
    23:00 +26°C° 0 mm 2 mps 716 mmHg 74%

    Tomorrow, 17 December, Sunday

    Time Temperature Precipitation Wind Pressure Humidity
    00:00 +26°C° 0 mm 2 mps 717 mmHg 77%
    01:00 +25°C° 0 mm 2 mps 716 mmHg 79%
    02:00 +25°C° 0 mm 2 mps 716 mmHg 82%
    03:00 +24°C° 0 mm 2 mps 716 mmHg 84%
    04:00 +24°C° 0 mm 2 mps 716 mmHg 86%
    05:00 +24°C° 0 mm 2 mps 717 mmHg 88%
    06:00 +24°C° 0 mm 2 mps 717 mmHg 90%
    07:00 +26°C° 0 mm 3 mps 718 mmHg 82%
    08:00 +28°C° 0 mm 3 mps 718 mmHg 74%
    09:00 +30°C° 0 mm 4 mps 719 mmHg 66%
    10:00 +31°C° 0 mm 3 mps 719 mmHg 61%
    11:00 +33°C° 0 mm 3 mps 719 mmHg 56%
    12:00 +34°C° 0 mm 3 mps 719 mmHg 51%
    13:00 +35°C° 0.1 mm 3 mps 719 mmHg 51%
    14:00 +35°C° 0.1 mm 2 mps 718 mmHg 50%
    15:00 +35°C° 0.1 mm 2 mps 718 mmHg 50%
    16:00 +34°C° 0.2 mm 2 mps 718 mmHg 54%
    17:00 +32°C° 0.2 mm 1 mps 718 mmHg 59%
    18:00 +32°C° 0.2 mm 1 mps 718 mmHg 63%
    19:00 +30°C° 0.3 mm 1 mps 718 mmHg 67%
    20:00 +28°C° 0.3 mm 2 mps 718 mmHg 72%
    21:00 +27°C° 0.3 mm 2 mps 718 mmHg 77%
    22:00 +26°C° 0 mm 3 mps 718 mmHg 78%
    23:00 +26°C° 0 mm 3 mps 718 mmHg 80%

    Day after tomorrow, 18 December, Monday

    Time Temperature Precipitation Wind Pressure Humidity
    00:00 +26°C° 0 mm 3 mps 719 mmHg 81%
    01:00 +25°C° 0 mm 3 mps 719 mmHg 84%
    02:00 +24°C° 0 mm 2 mps 718 mmHg 87%
    03:00 +24°C° 0 mm 1 mps 718 mmHg 90%
    04:00 +24°C° 0 mm 1 mps 718 mmHg 90%
    05:00 +24°C° 0 mm 1 mps 719 mmHg 91%
    06:00 +24°C° 0 mm 1 mps 719 mmHg 91%
    07:00 +26°C° 0 mm 2 mps 719 mmHg 83%
    08:00 +28°C° 0 mm 3 mps 720 mmHg 75%
    09:00 +30°C° 0 mm 4 mps 720 mmHg 67%
    10:00 +31°C° 0 mm 3 mps 720 mmHg 62%
    11:00 +33°C° 0 mm 3 mps 720 mmHg 57%
    12:00 +34°C° 0 mm 3 mps 720 mmHg 52%
    13:00 +34°C° 0.2 mm 3 mps 720 mmHg 53%
    14:00 +34°C° 0.2 mm 2 mps 719 mmHg 54%
    15:00 +32°C° 0.2 mm 2 mps 719 mmHg 54%
    16:00 +32°C° 0.1 mm 1 mps 719 mmHg 58%
    17:00 +31°C° 0.1 mm 1 mps 719 mmHg 62%
    18:00 +31°C° 0.1 mm 1 mps 718 mmHg 65%
    19:00 +29°C° 0.3 mm 1 mps 719 mmHg 69%
    20:00 +28°C° 0.3 mm 2 mps 719 mmHg 74%
    21:00 +26°C° 0.3 mm 2 mps 719 mmHg 78%
    22:00 +26°C° 0.3 mm 2 mps 719 mmHg 81%
    23:00 +25°C° 0.3 mm 3 mps 720 mmHg 83%

    19 December, Tuesday

    Time Temperature Precipitation Wind Pressure Humidity
    00:00 +25°C° 0.3 mm 3 mps 720 mmHg 86%
    01:00 +24°C° 0.2 mm 3 mps 720 mmHg 87%
    02:00 +24°C° 0.2 mm 3 mps 719 mmHg 88%
    03:00 +24°C° 0.2 mm 3 mps 719 mmHg 90%
    04:00 +24°C° 0 mm 3 mps 719 mmHg 90%
    05:00 +22°C° 0 mm 3 mps 720 mmHg 90%
    06:00 +22°C° 0 mm 3 mps 720 mmHg 90%
    07:00 +25°C° 0 mm 3 mps 720 mmHg 84%
    08:00 +27°C° 0 mm 4 mps 721 mmHg 77%
    09:00 +28°C° 0 mm 4 mps 721 mmHg 70%
    10:00 +30°C° 0 mm 4 mps 721 mmHg 64%
    11:00 +33°C° 0 mm 4 mps 720 mmHg 57%
    12:00 +34°C° 0 mm 4 mps 720 mmHg 51%
    13:00 +35°C° 0 mm 4 mps 719 mmHg 50%
    14:00 +35°C° 0 mm 3 mps 719 mmHg 49%
    15:00 +35°C° 0 mm 3 mps 718 mmHg 49%
    16:00 +34°C° 0 mm 2 mps 718 mmHg 53%
    17:00 +32°C° 0 mm 2 mps 718 mmHg 57%
    18:00 +32°C° 0 mm 1 mps 717 mmHg 61%
    19:00 +30°C° 0 mm 1 mps 718 mmHg 62%
    20:00 +29°C° 0 mm 1 mps 718 mmHg 64%
    21:00 +28°C° 0 mm 1 mps 718 mmHg 66%
    22:00 +27°C° 0.1 mm 1 mps 718 mmHg 69%
    23:00 +27°C° 0.1 mm 2 mps 718 mmHg 73%

    20 December, Wednesday

    Time Temperature Precipitation Wind Pressure Humidity
    00:00 +26°C° 0.1 mm 2 mps 718 mmHg 76%
    01:00 +26°C° 0.1 mm 2 mps 718 mmHg 79%
    02:00 +25°C° 0.1 mm 2 mps 718 mmHg 82%
    03:00 +25°C° 0.1 mm 2 mps 717 mmHg 85%
    04:00 +24°C° 0.2 mm 2 mps 718 mmHg 86%
    05:00 +24°C° 0.2 mm 2 mps 718 mmHg 88%
    06:00 +24°C° 0.2 mm 2 mps 718 mmHg 90%
    07:00 +25°C° 1.1 mm 2 mps 718 mmHg 85%
    08:00 +27°C° 1.1 mm 2 mps 719 mmHg 81%
    09:00 +28°C° 1.1 mm 3 mps 719 mmHg 76%
    10:00 +29°C° 1.5 mm 3 mps 719 mmHg 72%
    11:00 +30°C° 1.5 mm 3 mps 718 mmHg 69%
    12:00 +30°C° 1.5 mm 3 mps 718 mmHg 66%
    13:00 +30°C° 1.8 mm 3 mps 718 mmHg 68%
    14:00 +30°C° 1.8 mm 3 mps 717 mmHg 70%
    15:00 +29°C° 1.8 mm 3 mps 716 mmHg 73%
    16:00 +28°C° 2.6 mm 2 mps 716 mmHg 78%
    17:00 +27°C° 2.6 mm 2 mps 716 mmHg 83%
    18:00 +26°C° 2.6 mm 1 mps 716 mmHg 88%
    19:00 +25°C° 2.2 mm 1 mps 716 mmHg 89%
    20:00 +25°C° 2.2 mm 2 mps 716 mmHg 90%
    21:00 +24°C° 2.2 mm 2 mps 717 mmHg 90%
    22:00 +24°C° 0.8 mm 2 mps 716 mmHg 91%
    23:00 +24°C° 0.8 mm 2 mps 716 mmHg 92%

    21 December, Thursday

    Time Temperature Precipitation Wind Pressure Humidity
    00:00 +24°C° 0.8 mm 3 mps 716 mmHg 93%
    01:00 +24°C° 0.7 mm 3 mps 716 mmHg 93%
    02:00 +22°C° 0.7 mm 3 mps 715 mmHg 94%
    03:00 +22°C° 0.7 mm 3 mps 715 mmHg 94%
    04:00 +22°C° 1.5 mm 3 mps 715 mmHg 94%
    05:00 +22°C° 1.5 mm 3 mps 715 mmHg 94%
    06:00 +22°C° 1.5 mm 3 mps 715 mmHg 93%
    07:00 +24°C° 1.8 mm 3 mps 716 mmHg 93%
    08:00 +24°C° 1.8 mm 3 mps 716 mmHg 93%
    09:00 +24°C° 1.8 mm 3 mps 717 mmHg 93%
    10:00 +24°C° 2.2 mm 3 mps 717 mmHg 93%
    11:00 +24°C° 2.2 mm 3 mps 716 mmHg 93%
    12:00 +24°C° 2.2 mm 3 mps 716 mmHg 93%
    13:00 +24°C° 1.5 mm 2 mps 716 mmHg 94%
    14:00 +24°C° 1.5 mm 2 mps 716 mmHg 94%
    15:00 +24°C° 1.5 mm 2 mps 715 mmHg 94%
    16:00 +24°C° 0.5 mm 2 mps 715 mmHg 94%
    17:00 +24°C° 0.5 mm 2 mps 715 mmHg 94%
    18:00 +24°C° 0.5 mm 2 mps 715 mmHg 94%
    19:00 +24°C° 0.6 mm 2 mps 715 mmHg 94%
    20:00 +23°C° 0.6 mm 2 mps 716 mmHg 95%
    21:00 +23°C° 0.6 mm 2 mps 716 mmHg 96%
    22:00 +23°C° 1.5 mm 2 mps 716 mmHg 96%
    23:00 +23°C° 1.5 mm 2 mps 716 mmHg 97%
    Show more